FENGYUN 3E (49008 NORAD) Tracking and Keplerian Element Data

This shows tracking and keplerian element data for the satellite.

Feedback or suggestion? Click here.




ElementValue
Catalog49008
NameFENGYUN 3E
Epoch Orbit1081
Epoch Day262.12336096
Epoch Year2021
RAAN263.4453
Inclination98.7051
Eccentricity0.0002973
Argument of Perigee71.4079
Mean Anonmoly288.7425
Mean Motion14.19812135
Decay Rate-3.8E-07
L11 49008U 21062A 21262.12336096 -.00000038 00000-0 27329-5 0 9995
L22 49008 98.7051 263.4453 0002973 71.4079 288.7425 14.19812135 10810

Live tracking and technical data element details for FENGYUN 3E (NORAD 49008). FENGYUN 3E can be tracked NOW for your location showing map with azimuth and elevation plus other details from your city location.

Track the satellite on the map from your city or location and see movement details for azimuth, elevation, latitude, longitude, range, height, and movement on the map or in text.







IsCatalogInMostPopularTable: catalog: 49008, numindb: 19
Update: records affected: 1



GetName: 49008 FENGYUN 3E

Hit Count: updated at: Fri, 24 Sep 2021 17:44:16 GMT